Miscellaneous Local Product
Issued by NWS North Platte, NE

Home | Current Version | Previous Version | Text Only | Print | Product List | Glossary On
Versions: 1 2 3 4 5 6 7 8 9 10 11 12 13 14 15 16 17 18 19 20 21 22 23 24 25 26 27 28 29 30 31 32 33 34 35 36 37 38 39 40 41 42 43 44 45 46 47 48 49 50
191
AXUS43 KLBF 291410
MISLBF


WESTERN AND NORTH CENTRAL NEBRASKA HOURLY WEATHER ROUNDUP
NATIONAL WEATHER SERVICE NORTH PLATTE NE
900 AM CDT FRI JUL 29 2016

NOTE: "FAIR" INDICATES FEW OR NO CLOUDS BELOW 12,000 FEET WITH NO
SIGNIFICANT WEATHER AND/OR OBSTRUCTIONS TO VISIBILITY.

NOTE: STATIONS NOT REPORTING VARIABLES SUCH AS SKY/WEATHER OR
PRESSURE ARE PROVIDED BY RAWS AND APRS NETWORKS AND ARE NOT UNDER
NATIONAL WEATHER SERVICE QUALITY CONTROL.

...OBSERVATIONS IN AND NEAR THE EASTERN PANHANDLE OF NEBRASKA...

CITY           SKY/WX    TMP DP  RH WIND       PRES   REMARKS
PINE RIDGE     FOG       59  59 100 CALM      30.14R VSB 1/4
CHADRON        SUNNY     63  58  83 CALM      30.14R
ALLIANCE       FOG       59  59 100 CALM      30.15S VSB 1/4
SIDNEY         SUNNY     65  60  84 NW3       30.18R
CRESCENT LAKE    N/A     64  63  96 NE3         N/A
$$

...OBSERVATIONS IN NORTHERN NEBRASKA AND FAR SOUTHERN SOUTH DAKOTA...

CITY           SKY/WX    TMP DP  RH WIND       PRES   REMARKS
WINNER         PTSUNNY   67  62  84 N3        30.11S
THEDFORD       CLOUDY    63  62  98 E3        30.15S
AINSWORTH      CLOUDY    63  63 100 E3        30.13S
O`NEILL        CLOUDY    66  63  90 NE6       30.12R
ORD            CLOUDY    66  63  90 W3        30.10R
BROKEN BOW     CLOUDY    64  63  96 N3        30.13R
VALENTINE NWR    N/A     61  60  97 CALM        N/A
BUTTE            N/A     64  61  91 CALM        N/A
HALSEY           N/A     62  62  99 NE3         N/A
EWING            N/A     66  63  91 NE3         N/A
$$

...OBSERVATIONS IN SOUTHWEST NEBRASKA AND FAR NORTHEAST COLORADO...

CITY           SKY/WX    TMP DP  RH WIND       PRES   REMARKS
WRAY           FAIR      68  61  77 CALM      30.16R
IMPERIAL       SUNNY     66  62  87 NE6       30.15R
OGALLALA       SUNNY     66  63  89 CALM      30.14S
NORTH PLATTE   CLOUDY    63  61  93 CALM      30.14R FOG
MCCOOK         MOSUNNY   67  63  87 E6        30.13R
LEXINGTON      PTSUNNY   65  63  92 CALM      30.13S
STAPLETON        N/A     61  60  97 CALM        N/A
GOTHENBURG       N/A     61  57  87 CALM        N/A
CALLAWAY         N/A     61  60  97 NE3         N/A
$$

...OBSERVATIONS IN CENTRAL LINCOLN COUNTY AREA...

CITY           SKY/WX    TMP DP  RH WIND       PRES   REMARKS
N.P. AIRPORT   CLOUDY    63  61  93 CALM      30.14R FOG
N.P. DOWNTOWN    N/A     64  62  93 CALM        N/A
N.P. SOUTHEAST   N/A     62  61  96 CALM        N/A
N.P. HILLCREST   N/A     62  61  97 CALM        N/A
$$

...SOME OBSERVATIONS FROM AROUND THE REGION...

CITY           SKY/WX    TMP DP  RH WIND       PRES   REMARKS
DENVER         MOSUNNY   66  58  75 SE7       30.20S
LARAMIE        PTSUNNY   54  53  97 SW6       30.30S FOG
CHEYENNE       SUNNY     63  54  72 SW10      30.24S
SCOTTSBLUFF    SUNNY     63  59  87 S5        30.16R
RAPID CITY     SUNNY     62  58  86 CALM      30.12S
BISMARCK       SUNNY     69  62  78 CALM      30.10S
PIERRE         CLOUDY    68  62  81 VRB3      30.08S
SIOUX FALLS    MOSUNNY   67  58  72 NW3       30.10R
OMAHA          CLOUDY    69  60  73 SE3       30.09R
GRAND ISLAND   CLOUDY    68  63  84 NE3       30.11R
KANSAS CITY    PTSUNNY   73  63  70 E6        30.03R
WICHITA        CLOUDY    70  67  90 N6        30.06F
OKLAHOMA CITY  TSTM      69  65  86 NE16G26   30.08F FOG
DALLAS         PTSUNNY   82  71  69 S9        30.02R
AMARILLO       CLOUDY    70  61  73 E13       30.11F
DODGE CITY     MOSUNNY   70  65  84 NE14      30.09R
HAYS           CLOUDY    70  61  73 CALM      30.09R
GOODLAND       CLOUDY    67  62  84 NE6       30.16R
$$




USA.gov is the U.S. government's official web portal to all federal, state and local government web resources and services.